This is the latest recevied weather packets stored in our database for station/object KY4OP-13. If no packets are shown the sender has not sent any weather packets the latest 1 day(s).
| Time | Temp. | Humidity | Pressure | Rain* | Wind** | Luminosity | Snow |
|---|---|---|---|---|---|---|---|
| 1778117957 | 17.78° C | 90% | 1010.9 hPa | 0 mm | - | - | - |
| 1778117654 | 18.33° C | 89% | 1011 hPa | 0 mm | - | - | - |
| 1778117352 | 18.33° C | 88% | 1011.4 hPa | 0 mm | - | - | - |
| 1778117048 | 18.89° C | 87% | 1011.5 hPa | 0 mm | - | - | - |
| 1778116435 | 18.89° C | 86% | 1011.6 hPa | 0 mm | - | - | - |
| 1778116135 | 18.89° C | 86% | 1011.4 hPa | 0 mm | - | - | - |
| 1778115831 | 19.44° C | 86% | 1011.6 hPa | 0 mm | - | - | - |
| 1778115528 | 19.44° C | 85% | 1011.5 hPa | 0 mm | - | - | - |
| 1778115225 | 19.44° C | 85% | 1012.1 hPa | 0 mm | - | - | - |
| 1778114917 | - | - | - | 0 mm | - | - | - |
| 1778114614 | 19.44° C | 85% | 1011.4 hPa | 0 mm | - | - | - |
| 1778114311 | 19.44° C | 85% | 1011.4 hPa | 0 mm | - | - | - |
| 1778113701 | 19.44° C | 85% | 1011 hPa | 0 mm | - | - | - |
| 1778110663 | - | - | - | 0 mm | - | - | - |
| 1778110359 | 20.56° C | 81% | 1010.5 hPa | 0 mm | - | - | - |
| 1778109750 | 20.56° C | 81% | 1010.6 hPa | 0 mm | - | - | - |
| 1778109146 | 21.11° C | 80% | 1010.4 hPa | 0 mm | - | - | - |
| 1778105203 | 21.11° C | 79% | 1010.3 hPa | 0 mm | - | - | - |
| 1778103988 | 21.67° C | 77% | 1009.9 hPa | 0 mm | - | - | - |
| 1778101562 | 21.11° C | 78% | 1010 hPa | 0 mm | - | - | - |
| 1778099440 | 20.56° C | 81% | 1010 hPa | 0 mm | - | - | - |
| 1778098532 | 20.56° C | 80% | 1010.3 hPa | 0 mm | - | - | - |
| 1778098228 | 20.56° C | 81% | 1010.3 hPa | 0 mm | - | - | - |
| 1778092760 | 18.89° C | 85% | 1011 hPa | 0 mm | - | - | - |
| 1778092152 | 18.89° C | 83% | 1011 hPa | 0 mm | - | - | - |
* Rain latest hour (hover to see other rain measurements)
** Current wind speed in m/s (hover to see current wind gust speed)